Location: Boiro
(42.6475°N, 8.8834°W)
Time: 18:20:13
(UTC+01:00)

Explorer 11/Cluster Stage 4 - Pass Details

Date: 02 December 2021
Orbit: 467 x 1255 km, 28.8° (Epoch: 23 January)

Event Time Altitude Azimuth Distance (km) Brightness Sun altitude
Exits shadow 04:50:58 21° 141° (SE) 2,396 9.2 -42.7°
Drops below altitude 10° 04:54:40 10° 116° (ESE) 3,180 10.1 -42.0°
Sets 04:58:16 0° 104° (ESE) 4,186 11.0 -41.4°
